Meteo Giornale » Osservazioni meteo Italia » Pisa-S Giusto

ore: 15:15 - Osservazioni Meteo Pisa-S Giusto
Lat. 43° 41' N Lon. 10° 23' E Alt. 2 metri s.l.m.

poco_nuvoloso Europe/Rome

22 °C

Poco Nuvoloso

Temp. 24 Ore

11 °C

22 °C

Nord

3.7 Km/h

Dew point 14 °C

Umidità 60 %

Visibilità  10 Km

Il sole sorge alle ore 07:35

Il sole tramonta alle ore 18:32

Data e Ora Cielo e Fenomeni T °C DP °C Um. % Pres. hPa Vis. km Vento km/h
Oggi h: 15:15 poco_nuvoloso Poco Nuvoloso 22 14 60 1018 10 N 3.7
Oggi h: 14:45 poco_nuvoloso Poco Nuvoloso 21 14 64 1018 10 N 3.7
Oggi h: 14:15 poco_nuvoloso Poco Nuvoloso 21 13 60 1019 10 N 5.5
Oggi h: 13:45 poco_nuvoloso Poco Nuvoloso 21 13 60 1019 10 N 5.5
Oggi h: 13:15 poco_nuvoloso Poco Nuvoloso 21 13 60 1019 10 E/SE 7.4
Oggi h: 12:45 poco_nuvoloso Poco Nuvoloso 19 14 72 1019 10 SE 7.4
Oggi h: 12:15 poco_nuvoloso Poco Nuvoloso 19 15 77 1019 10 E/SE 11.1
Oggi h: 11:45 poco_nuvoloso Poco Nuvoloso 17 15 88 1019 10 E/SE 13
Oggi h: 11:15 poco_nuvoloso Poco Nuvoloso 17 15 88 1019 10 E/SE 16.7
Oggi h: 10:45 poco_nuvoloso Poco Nuvoloso 16 15 93 1019 10 E/SE 11.1
Oggi h: 10:15 poco_nuvoloso Poco Nuvoloso 15 14 93 1019 10 E/SE 14.8
Oggi h: 09:45 poco_nuvoloso Poco Nuvoloso 13 12 93 1019 10 E/SE 11.1
Oggi h: 09:15 poco_nuvoloso Poco Nuvoloso 12 12 100 1019 10 SE 11.1
Oggi h: 08:45 poco_nuvoloso Poco Nuvoloso 11 11 100 1019 10 SE 9.3
Oggi h: 08:15 nuvoloso Nuvoloso 11 11 100 1019 10 SE 9.3
Oggi h: 07:45 nuvoloso Nuvoloso 11 11 100 1019 10 N 5.5
Oggi h: 07:15 nuvoloso Nuvoloso 11 11 100 1018 10 N 3.7
Oggi h: 06:45 nuvoloso Nuvoloso 11 10 93 1018 8 N 3.7
Oggi h: 06:15 nuvoloso Nuvoloso 11 10 93 1019 8 N 3.7
Oggi h: 05:45 nuvoloso Nuvoloso 11 10 93 1019 8 E/SE 9.3
Oggi h: 05:15 nebbia Nebbia a Strati 11 10 93 1019 8 E/SE 7.4
Oggi h: 04:45 nebbia Nebbia a Strati 11 10 93 1019 8 E/SE 9.3
Oggi h: 04:15 nebbia Nebbia a Strati 12 11 93 1019 8 N 5.5
Oggi h: 03:45 poco_nuvoloso Poco Nuvoloso 12 11 93 1019 10 N 5.5
Oggi h: 03:15 nuvoloso Nuvoloso 12 11 93 1020 10 N 5.5
Oggi h: 02:45 nuvoloso Nuvoloso 12 11 93 1020 10 N 5.5
Oggi h: 02:15 nebbia Nebbia a Strati 13 12 93 1020 8 S/SE 9.3
Oggi h: 01:45 nebbia Nebbia a Strati 13 12 93 1020 8 N 1.8
Oggi h: 01:15 nebbia Nebbia a Strati 13 12 93 1020 8 N 1.8
Oggi h: 00:45 nebbia Nebbia a Strati 13 12 93 1020 10 N 1.8
Oggi h: 00:15 sereno Sereno 13 12 93 1020 10 N 5.5
Ieri h: 23:45 sereno Sereno 13 12 93 1020 10 E/SE 9.3
Ieri h: 23:15 sereno Sereno 14 13 93 1020 10 E 7.4
Ieri h: 22:45 sereno Sereno 14 13 93 1020 10 E 7.4
Ieri h: 22:15 nebbia Nebbia a Strati 14 13 93 1020 8 N 3.7
Ieri h: 21:45 nebbia Nebbia a Strati 14 13 93 1020 8 N 5.5
Ieri h: 21:15 nebbia Nebbia a Strati 14 13 93 1019 8 N 5.5
Ieri h: 20:45 nuvoloso Nuvoloso 15 14 93 1019 10 S/SE 7.4
Ieri h: 20:15 nuvoloso Nuvoloso 16 15 93 1019 10 S/SE 7.4
Ieri h: 19:45 nuvoloso Nuvoloso 17 15 88 1019 10 N 5.5
Ieri h: 19:15 molto_nuvoloso Molto Nuvoloso 16 14 87 1019 10 N 5.5
Ieri h: 18:45 nuvoloso Nuvoloso 16 15 93 1019 10 N/NO 9.3
Ieri h: 18:15 nuvoloso Nuvoloso 17 15 88 1019 10 O/NO 9.3
Ieri h: 17:45 molto_nuvoloso Molto Nuvoloso 16 15 93 1019 10 N 5.5
Ieri h: 17:15 molto_nuvoloso Molto Nuvoloso 16 15 93 1019 10 NO 7.4
Ieri h: 16:45 coperto_pioggia Pioggia Debole 17 16 93 1019 10 N 3.7